[[{"header":{"parameterUnit":"m.s-1","parameterCategory":2,"la1":30.2991,"la2":30.254,"lo1":-89.0895,"lo2":-89.0444,"dy":0.0017,"dx":0.0017,"nx":28,"ny":28,"refTime":"2023-10-11T03:00:00:Z","depth":"0","parameterNumber":2,"parameterNumberName":"U-component_of_CURRENTS"},"data":[0,0,0,0,0,0,0,0,0,0,0,0,0,0,0,0,0,0,0,0,0,0,0,0,0,0,0,0,0,0,0,0,0,0,0,0,0,0,0,0,0,0,0,0,0,0,0,0,0,0,0,0,0,0,0,0,0,0,-0.2774,-0.2775,0,-0.2831,-0.2832,-0.2832,-0.2828,-0.2827,-0.2827,-0.2826,-0.2804,-0.2804,-0.2804,0,0,0,0,0,0,0,0,0,0,0,0,0,-0.2631,-0.2633,-0.2774,-0.2775,-0.2776,-0.2831,-0.2832,-0.2832,-0.2828,-0.2827,-0.2827,-0.2826,-0.2804,-0.2804,-0.2804,0,0,0,0,0,0,0,0,0,0,0,0,0,-0.2687,-0.2634,-0.2773,-0.2784,-0.2785,-0.2831,-0.2832,-0.2832,-0.2828,-0.2827,-0.2826,-0.2826,-0.2804,-0.2804,-0.2804,-0.2816,0,0,-0.2803,-0.2803,0,0,0,0,0,0,0,0,-0.2684,-0.2691,-0.2781,-0.2783,-0.2785,-0.2825,-0.2774,-0.2824,-0.2828,-0.2807,-0.2826,-0.2825,-0.2807,-0.2807,-0.2814,-0.2815,-0.2814,-0.2803,-0.2803,-0.2803,-0.2803,0,0,0,0,0,0,0,-0.268,-0.2689,-0.2792,-0.2782,-0.2785,-0.2776,-0.2783,-0.2783,-0.2805,-0.2809,-0.281,-0.2823,-0.2807,-0.2814,-0.2813,-0.2814,-0.2803,-0.2803,-0.2803,-0.2803,-0.2841,-0.2842,0,0,0,0,0,0,-0.2684,-0.2686,-0.279,-0.2794,-0.2737,-0.2779,-0.2787,-0.281,-0.2807,-0.2808,-0.2824,-0.2823,-0.2815,-0.2814,-0.2812,-0.2851,-0.2803,-0.2803,-0.2802,-0.284,-0.2841,-0.2843,0,0,0,0,0,0,-0.2681,-0.2694,-0.2788,-0.2744,-0.2756,-0.2783,-0.2808,-0.2811,-0.282,-0.282,-0.2819,-0.283,-0.2814,-0.2813,-0.2821,-0.2848,-0.2802,-0.2802,-0.2838,-0.284,-0.2842,-0.2911,0,0,0,0,0,0,-0.2677,-0.2692,-0.2702,-0.2745,-0.2759,-0.2822,-0.281,-0.2813,-0.2832,-0.2831,-0.2825,-0.2823,-0.2814,-0.2822,-0.2821,-0.2847,-0.2802,-0.2837,-0.2839,-0.2841,-0.2908,-0.2915,-0.2922,0,0,0,0,0,-0.2672,-0.2696,-0.2702,-0.2715,-0.2774,-0.2824,-0.283,-0.2843,-0.2833,-0.2845,-0.2841,-0.2823,-0.2835,-0.2823,-0.2821,-0.2848,-0.2836,-0.2839,-0.2841,-0.2904,-0.2914,-0.2922,0,0,0,0,0,0,-0.2635,-0.27,-0.2707,-0.2747,-0.2785,-0.2825,-0.2837,-0.2847,-0.2854,-0.2848,-0.2836,-0.2835,-0.2853,-0.284,-0.2827,-0.2866,-0.2833,-0.2836,-0.2882,-0.289,-0.2897,-0.2913,-0.2802,0,0,0,0,0,-0.2634,-0.2667,-0.2723,-0.2752,-0.2773,-0.2803,-0.2821,-0.2837,-0.2855,-0.2858,-0.2855,-0.2853,-0.2864,-0.2867,-0.2869,-0.289,-0.2887,-0.2906,-0.2913,-0.2919,-0.2932,-0.2954,-0.2964,-0.2851,-0.2851,-0.2851,0,0,-0.2624,-0.2665,-0.2681,-0.2745,-0.2771,-0.2822,-0.2811,-0.2849,-0.2889,-0.2854,-0.2887,-0.2875,-0.2874,-0.2901,-0.2908,-0.2893,-0.295,-0.2923,-0.2928,-0.2937,-0.2958,-0.2969,-0.2979,-0.2853,-0.2853,-0.2852,0,0,-0.2635,-0.2662,-0.2699,-0.2741,-0.2796,-0.2826,-0.284,-0.2885,-0.29,-0.2932,-0.2922,-0.2931,-0.2936,-0.2953,-0.296,-0.3007,-0.2985,-0.3001,-0.3053,-0.3074,-0.3084,-0.3092,-0.3104,-0.3113,-0.3006,-0.3007,-0.3007,0,-0.2617,-0.268,-0.2714,-0.2768,-0.2806,-0.2833,-0.2885,-0.2918,-0.2956,-0.2977,-0.2948,-0.2981,-0.2969,-0.3026,-0.3037,-0.3026,-0.3026,-0.3021,-0.3085,-0.3093,-0.31,-0.311,-0.3119,-0.301,-0.301,-0.3009,-0.3009,0,-0.2664,-0.2717,-0.2742,-0.2824,-0.2868,-0.2914,-0.2976,-0.301,-0.302,-0.3047,-0.3088,-0.3076,-0.3092,-0.3095,-0.3077,-0.3133,-0.3112,-0.309,-0.3064,-0.3116,-0.3122,-0.313,-0.3015,-0.3014,-0.3013,-0.3012,0,0,-0.2611,-0.2749,-0.2754,-0.2811,-0.2902,-0.2946,-0.3021,-0.3097,-0.3149,-0.3163,-0.322,-0.323,-0.3208,-0.3214,-0.3198,-0.3217,-0.326,-0.3175,-0.3174,-0.3189,-0.3302,-0.3215,-0.3215,-0.3245,-0.3247,-0.3249,-0.3285,0,-0.2631,-0.2743,-0.2806,-0.2906,-0.297,-0.3033,-0.3106,-0.3177,-0.3215,-0.3274,-0.3281,-0.3312,-0.3262,-0.326,-0.3277,-0.3264,-0.3284,-0.3252,-0.3247,-0.3247,-0.3166,-0.3223,-0.307,-0.3083,-0.3293,-0.3294,-0.3295,0,-0.2643,-0.2727,-0.2827,-0.2971,-0.3002,-0.3058,-0.3173,-0.3243,-0.3338,-0.3365,-0.3399,-0.34,-0.3433,-0.3373,-0.3392,-0.337,-0.3342,-0.333,-0.3331,-0.3232,-0.3176,-0.3065,-0.3089,-0.3067,-0.3307,-0.3306,-0.3305,0,-0.2585,-0.2734,-0.2813,-0.2861,-0.3024,-0.3069,-0.3141,-0.3251,-0.3312,-0.3407,-0.3443,-0.349,-0.349,-0.3488,-0.3437,-0.3419,-0.3451,-0.3423,-0.333,-0.3323,-0.3184,-0.3161,-0.3187,-0.3447,-0.3447,-0.3447,-0.3447,0,-0.258,-0.2641,-0.279,-0.2837,-0.2924,-0.3043,-0.3128,-0.3212,-0.3327,-0.3394,-0.346,-0.3501,-0.3514,-0.3524,-0.3485,-0.3425,-0.3484,-0.3355,-0.3334,-0.3202,-0.3181,-0.3146,-0.3161,-0.3448,-0.3448,-0.3448,-0.3447,0,-0.2493,-0.2601,-0.2691,-0.2851,-0.2896,-0.2943,-0.3089,-0.3163,-0.3277,-0.3364,-0.339,-0.3504,-0.3517,-0.3525,-0.3523,-0.3462,-0.337,-0.3395,-0.3232,-0.3191,-0.3068,-0.3092,-0.3086,-0.3007,-0.3312,-0.331,-0.3308,0,-0.246,-0.2499,-0.2647,-0.2692,-0.2753,-0.2849,-0.2926,-0.309,-0.3163,-0.3347,-0.3378,-0.3454,-0.3463,-0.3451,-0.3378,-0.332,-0.3303,-0.3153,-0.3092,-0.3056,-0.3069,-0.3074,-0.3009,-0.2939,-0.2935,-0.2931,-0.2929,0,-0.237,-0.2408,-0.2481,-0.2567,-0.2644,-0.2735,-0.2846,-0.2906,-0.3101,-0.3189,-0.3293,-0.3326,-0.3337,-0.3224,-0.3162,-0.3098,-0.3066,-0.3075,-0.3083,-0.2825,-0.2788,-0.27,-0.2928,-0.2896,-0.2899,-0.2902,-0.2904,-0.2905,-0.2257,-0.2265,-0.2345,-0.2415,-0.2508,-0.2576,-0.2587,-0.2734,-0.2824,-0.2919,-0.3075,-0.3081,-0.3078,-0.2964,-0.2922,-0.2781,-0.2835,-0.2684,-0.2732,-0.2753,-0.263,-0.2784,-0.2696,-0.2698,-0.27,-0.2702,-0.2703,0,-0.2106,-0.2136,-0.2195,-0.2267,-0.2294,-0.2395,-0.2502,-0.2485,-0.2523,-0.2675,-0.2719,-0.2761,-0.265,-0.2674,-0.2573,-0.2469,-0.2407,-0.2416,-0.2394,-0.2353,-0.2517,-0.2449,-0.2247,-0.2247,-0.2247,-0.2247,-0.2247,-0.2247,-0.2022,-0.201,-0.2049,-0.2026,-0.2071,-0.2029,-0.2042,-0.2051,-0.2112,-0.2159,-0.2242,-0.2344,-0.2403,-0.2573,-0.2452,-0.234,-0.2295,-0.2199,-0.2262,-0.239,-0.2419,-0.2447,-0.2387,-0.2175,-0.2176,-0.1986,-0.1985,-0.1984]},{"header":{"parameterUnit":"m.s-1","parameterCategory":2,"la1":30.2991,"la2":30.254,"lo1":-89.0895,"lo2":-89.0444,"dy":0.0017,"dx":0.0017,"nx":28,"ny":28,"refTime":"2023-10-11T03:00:00:Z","depth":"0","parameterNumber":3,"parameterNumberName":"V-component_of_CURRENTS"},"data":[0,0,0,0,0,0,0,0,0,0,0,0,0,0,0,0,0,0,0,0,0,0,0,0,0,0,0,0,0,0,0,0,0,0,0,0,0,0,0,0,0,0,0,0,0,0,0,0,0,0,0,0,0,0,0,0,0,0,-0.0163,-0.0161,0,-0.0029,-0.0028,-0.0026,0.0053,0.0054,0.0054,0.0054,0.0205,0.0208,0.0212,0,0,0,0,0,0,0,0,0,0,0,0,0,-0.0313,-0.0311,-0.0163,-0.0161,-0.016,-0.003,-0.0028,-0.0026,0.0053,0.0054,0.0054,0.0055,0.0204,0.0208,0.0212,0,0,0,0,0,0,0,0,0,0,0,0,0,-0.0221,-0.031,-0.0163,-0.0105,-0.0098,-0.003,-0.0028,-0.0025,0.0053,0.0054,0.0054,0.0055,0.0202,0.0207,0.0213,0.0237,0,0,0.023,0.0232,0,0,0,0,0,0,0,0,-0.0226,-0.0215,-0.0115,-0.0109,-0.0101,-0.0004,-0.0026,0.0063,0.0053,-0.0004,0.0054,0.0055,0.0136,0.0147,0.0171,0.0244,0.0251,0.023,0.0234,0.0236,0.0238,0,0,0,0,0,0,0,-0.0233,-0.022,-0.011,-0.0113,-0.0105,-0.0073,-0.0059,-0.0008,0.0062,0.0001,0.0007,0.0021,0.014,0.0165,0.0175,0.0253,0.023,0.0235,0.0239,0.0241,0.0369,0.0369,0,0,0,0,0,0,-0.0252,-0.0226,-0.0114,-0.0106,-0.0164,-0.0071,-0.0056,-0.0036,0.0061,0.0076,0.0021,0.0025,0.0156,0.0169,0.0181,0.022,0.0236,0.0241,0.0244,0.0369,0.0369,0.0369,0,0,0,0,0,0,-0.0255,-0.0243,-0.0119,-0.0164,-0.0146,-0.0069,-0.0047,-0.0033,-0.0007,0.0076,0.0092,0.0033,0.0157,0.0173,0.0227,0.0226,0.0244,0.0249,0.0368,0.0369,0.0369,0.0295,0,0,0,0,0,0,-0.026,-0.0245,-0.0243,-0.0165,-0.0144,-0.009,-0.0047,-0.0031,0.0001,0.0007,0.0091,0.0106,0.0158,0.0219,0.0233,0.0234,0.0253,0.0368,0.0369,0.0369,0.0298,0.0293,0.0289,0,0,0,0,0,-0.0266,-0.0268,-0.0243,-0.023,-0.0142,-0.009,-0.0077,-0.002,0.0,0.0006,0.0068,0.0103,0.023,0.0223,0.024,0.0243,0.0368,0.0369,0.0369,0.03,0.0294,0.0289,0,0,0,0,0,0,-0.0335,-0.0257,-0.0229,-0.0208,-0.0158,-0.0077,-0.0068,-0.0028,0.0026,0.003,0.0108,0.0127,0.0173,0.0218,0.0209,0.028,0.0303,0.0307,0.0245,0.024,0.0236,0.0218,0.0258,0,0,0,0,0,-0.035,-0.033,-0.0253,-0.0239,-0.0217,-0.0145,-0.0119,-0.008,-0.0019,0.0005,0.0066,0.013,0.0187,0.022,0.0273,0.0314,0.0362,0.0325,0.0321,0.0317,0.0314,0.0387,0.0388,0.0369,0.0369,0.0369,0,0,-0.0376,-0.033,-0.0319,-0.0253,-0.021,-0.0185,-0.0128,-0.0096,-0.0072,0.0012,0.0055,0.0115,0.0193,0.024,0.0264,0.0278,0.0348,0.0317,0.0313,0.0313,0.0387,0.0389,0.0391,0.0369,0.0369,0.0369,0,0,-0.042,-0.0375,-0.0374,-0.0336,-0.0276,-0.0225,-0.0221,-0.0143,-0.0107,-0.0057,0.0009,0.007,0.0151,0.0214,0.0255,0.0258,0.0318,0.027,0.024,0.031,0.0312,0.0314,0.0374,0.0382,0.0271,0.0271,0.0271,0,-0.0456,-0.0438,-0.037,-0.0358,-0.0337,-0.025,-0.0249,-0.0195,-0.011,-0.008,-0.0057,0.008,0.0142,0.0216,0.0217,0.0249,0.0293,0.0251,0.0303,0.0307,0.0311,0.0371,0.0382,0.0268,0.0268,0.0269,0.0269,0,-0.0493,-0.0482,-0.0481,-0.0434,-0.0401,-0.0388,-0.0306,-0.0268,-0.0214,-0.0152,-0.0075,0.0021,0.0103,0.0132,0.0178,0.0236,0.026,0.0284,0.0312,0.0308,0.0372,0.0384,0.0263,0.0264,0.0265,0.0266,0,0,-0.0564,-0.0518,-0.0519,-0.0521,-0.0443,-0.0425,-0.038,-0.0313,-0.0285,-0.0192,-0.0147,-0.0036,0.0022,0.0072,0.0145,0.0211,0.0275,0.025,0.0255,0.0301,0.0422,0.0476,0.0494,0.0306,0.0308,0.031,0.0455,0,-0.0617,-0.064,-0.0583,-0.0598,-0.0605,-0.0512,-0.0481,-0.0407,-0.0328,-0.026,-0.0138,-0.0071,-0.0,0.0035,0.0115,0.0238,0.0303,0.0233,0.0428,0.0433,0.0475,0.0509,0.0566,0.0704,0.0467,0.0469,0.047,0,-0.0667,-0.0681,-0.0714,-0.0694,-0.0685,-0.0669,-0.0606,-0.0565,-0.0435,-0.0372,-0.0264,-0.0163,-0.0036,0.0009,0.0226,0.0177,0.0286,0.0381,0.0389,0.0473,0.0509,0.0673,0.0735,0.0935,0.0489,0.0488,0.0486,0,-0.0769,-0.0768,-0.0806,-0.0798,-0.0754,-0.0745,-0.0713,-0.0606,-0.0575,-0.0442,-0.0396,-0.0224,-0.0138,0.0029,0.0243,0.0231,0.0476,0.0487,0.064,0.0645,0.075,0.0761,0.1024,0.0624,0.0623,0.0623,0.0622,0,-0.0847,-0.0875,-0.0862,-0.0885,-0.093,-0.0853,-0.0856,-0.0791,-0.0691,-0.0652,-0.047,-0.0387,-0.0131,0.0051,0.0229,0.0487,0.0474,0.0647,0.0694,0.0726,0.0733,0.0957,0.1025,0.0628,0.0627,0.0626,0.0625,0,-0.0942,-0.0931,-0.0979,-0.0972,-0.098,-0.101,-0.0974,-0.0964,-0.0851,-0.079,-0.0753,-0.0506,-0.0247,0.0019,0.031,0.047,0.0836,0.0786,0.0804,0.0851,0.1166,0.1225,0.1502,0.1627,0.0979,0.0981,0.0983,0,-0.0989,-0.1027,-0.107,-0.1117,-0.1118,-0.1147,-0.1162,-0.1069,-0.1038,-0.0854,-0.0826,-0.0561,-0.0338,0.0133,0.0473,0.082,0.0955,0.104,0.1031,0.1211,0.1313,0.1337,0.1424,0.1143,0.1147,0.1149,0.1151,0,-0.1083,-0.1091,-0.1138,-0.1251,-0.1294,-0.133,-0.133,-0.1328,-0.1195,-0.1095,-0.0897,-0.07,-0.0208,0.0261,0.0711,0.0902,0.1199,0.1101,0.1302,0.1481,0.1513,0.1646,0.1006,0.1174,0.1171,0.117,0.1169,0.1168,-0.1144,-0.121,-0.128,-0.1383,-0.1444,-0.1487,-0.1507,-0.1455,-0.1388,-0.1189,-0.0958,-0.0587,0.0082,0.0761,0.0997,0.1489,0.1409,0.1615,0.1677,0.1688,0.1807,0.1207,0.1412,0.1412,0.1411,0.141,0.141,0,-0.1219,-0.1299,-0.1411,-0.1516,-0.1599,-0.1593,-0.1601,-0.1565,-0.1478,-0.1192,-0.0924,-0.0111,0.0535,0.1122,0.1834,0.2074,0.2112,0.2163,0.2232,0.2297,0.18,0.1806,0.2089,0.2089,0.2089,0.2088,0.2088,0.2088,-0.1264,-0.1391,-0.1461,-0.1632,-0.1697,-0.1766,-0.1765,-0.1666,-0.1458,-0.0967,-0.0471,-0.0037,0.0821,0.1963,0.2594,0.262,0.283,0.2764,0.2884,0.2555,0.2509,0.2464,0.2491,0.2913,0.2914,0.3374,0.3379,0.3383]}],[{"header":{"parameterUnit":"m.s-1","parameterCategory":2,"la1":30.2991,"la2":30.254,"lo1":-89.0895,"lo2":-89.0444,"dy":0.0017,"dx":0.0017,"nx":28,"ny":28,"refTime":"2023-10-11T03:00:00:Z","depth":"2","parameterNumber":2,"parameterNumberName":"U-component_of_CURRENTS"},"data":[0,0,0,0,0,0,0,0,0,0,0,0,0,0,0,0,0,0,0,0,0,0,0,0,0,0,0,0,0,0,0,0,0,0,0,0,0,0,0,0,0,0,0,0,0,0,0,0,0,0,0,0,0,0,0,0,0,0,-0.2569,-0.257,0,-0.2624,-0.2625,-0.2625,-0.2627,-0.2626,-0.2626,-0.2626,-0.2614,-0.2614,-0.2614,0,0,0,0,0,0,0,0,0,0,0,0,0,-0.244,-0.2443,-0.2569,-0.257,-0.2571,-0.2624,-0.2625,-0.2625,-0.2627,-0.2626,-0.2626,-0.2625,-0.2614,-0.2614,-0.2614,0,0,0,0,0,0,0,0,0,0,0,0,0,-0.2492,-0.2443,-0.2569,-0.2581,-0.2583,-0.2624,-0.2625,-0.2625,-0.2627,-0.2626,-0.2626,-0.2625,-0.2614,-0.2614,-0.2614,-0.2623,0,0,-0.2614,-0.2614,0,0,0,0,0,0,0,0,-0.2489,-0.2496,-0.2578,-0.258,-0.2583,-0.2622,-0.2575,-0.2622,-0.2627,-0.2606,-0.2626,-0.2625,-0.2613,-0.2613,-0.262,-0.2622,-0.2622,-0.2614,-0.2614,-0.2614,-0.2614,0,0,0,0,0,0,0,-0.2486,-0.2494,-0.2587,-0.258,-0.2582,-0.2576,-0.2583,-0.2584,-0.2607,-0.2608,-0.2609,-0.2622,-0.2613,-0.262,-0.2619,-0.2622,-0.2614,-0.2614,-0.2614,-0.2613,-0.2658,-0.2659,0,0,0,0,0,0,-0.2489,-0.2491,-0.2585,-0.2589,-0.2538,-0.2579,-0.2586,-0.2606,-0.2609,-0.261,-0.2622,-0.2622,-0.262,-0.2619,-0.2619,-0.2663,-0.2614,-0.2613,-0.2613,-0.2657,-0.2658,-0.266,0,0,0,0,0,0,-0.2486,-0.2497,-0.2583,-0.2543,-0.2555,-0.2582,-0.2604,-0.2608,-0.262,-0.2621,-0.262,-0.2632,-0.262,-0.2619,-0.2632,-0.2661,-0.2613,-0.2613,-0.2656,-0.2657,-0.2659,-0.273,0,0,0,0,0,0,-0.2483,-0.2496,-0.2506,-0.2544,-0.2557,-0.2617,-0.2605,-0.2609,-0.2631,-0.263,-0.263,-0.2628,-0.2619,-0.2633,-0.2632,-0.266,-0.2613,-0.2654,-0.2656,-0.2659,-0.2726,-0.2734,-0.2741,0,0,0,0,0,-0.2478,-0.25,-0.2506,-0.2518,-0.2572,-0.2618,-0.2624,-0.2638,-0.2632,-0.2645,-0.2645,-0.2628,-0.2647,-0.2634,-0.2633,-0.2662,-0.2653,-0.2656,-0.2658,-0.2723,-0.2733,-0.2741,0,0,0,0,0,0,-0.2447,-0.2504,-0.2511,-0.2549,-0.2584,-0.262,-0.2634,-0.2644,-0.2656,-0.2652,-0.2642,-0.2642,-0.2665,-0.2652,-0.2638,-0.2681,-0.2648,-0.265,-0.2697,-0.2706,-0.2713,-0.2727,-0.2613,0,0,0,0,0,-0.2447,-0.2477,-0.2528,-0.2554,-0.2575,-0.2604,-0.2621,-0.2638,-0.2657,-0.2662,-0.2662,-0.2663,-0.2676,-0.2681,-0.2684,-0.2707,-0.2704,-0.2725,-0.2733,-0.2739,-0.275,-0.2772,-0.2783,-0.2669,-0.2669,-0.2669,0,0,-0.2439,-0.2476,-0.2491,-0.255,-0.2574,-0.2622,-0.2612,-0.265,-0.269,-0.2658,-0.2695,-0.2687,-0.2687,-0.2716,-0.2725,-0.2709,-0.277,-0.2742,-0.2748,-0.2756,-0.2776,-0.2788,-0.2797,-0.2671,-0.267,-0.267,0,0,-0.2451,-0.2476,-0.2511,-0.255,-0.2603,-0.263,-0.2644,-0.2688,-0.2706,-0.274,-0.2732,-0.2745,-0.2754,-0.277,-0.2777,-0.2827,-0.2806,-0.2822,-0.2875,-0.2897,-0.2906,-0.2915,-0.2926,-0.2935,-0.2829,-0.2829,-0.2829,0,-0.2438,-0.2494,-0.2525,-0.2576,-0.2612,-0.2639,-0.2688,-0.2721,-0.2761,-0.2783,-0.2759,-0.2796,-0.2787,-0.2843,-0.2856,-0.2846,-0.2847,-0.2842,-0.2907,-0.2915,-0.2923,-0.2933,-0.2942,-0.2833,-0.2832,-0.2832,-0.2831,0,-0.2482,-0.2531,-0.2556,-0.2631,-0.2673,-0.2718,-0.2777,-0.2813,-0.2827,-0.2855,-0.29,-0.2891,-0.291,-0.2914,-0.2898,-0.2955,-0.2935,-0.2912,-0.2886,-0.2939,-0.2945,-0.2954,-0.2838,-0.2837,-0.2836,-0.2835,0,0,-0.2435,-0.2562,-0.2568,-0.2621,-0.2707,-0.2749,-0.2823,-0.2897,-0.2949,-0.2969,-0.3027,-0.3041,-0.3024,-0.3031,-0.3017,-0.3037,-0.3083,-0.2998,-0.2997,-0.3012,-0.3126,-0.3038,-0.3037,-0.307,-0.3071,-0.3073,-0.311,0,-0.2455,-0.2559,-0.2617,-0.2713,-0.2772,-0.2833,-0.2905,-0.2975,-0.3015,-0.3076,-0.3087,-0.3122,-0.3076,-0.3079,-0.3096,-0.3085,-0.3107,-0.3074,-0.307,-0.3071,-0.2987,-0.3045,-0.2768,-0.2771,-0.3118,-0.3119,-0.312,0,-0.2467,-0.2545,-0.264,-0.2774,-0.2804,-0.2859,-0.2972,-0.304,-0.3135,-0.3166,-0.3204,-0.3208,-0.3244,-0.3189,-0.3211,-0.319,-0.3165,-0.3154,-0.3155,-0.3054,-0.2997,-0.2774,-0.2773,-0.3133,-0.3132,-0.3131,-0.313,0,-0.2414,-0.2554,-0.2629,-0.2674,-0.2827,-0.2873,-0.2943,-0.305,-0.311,-0.321,-0.3247,-0.3297,-0.3302,-0.3302,-0.3257,-0.324,-0.3274,-0.3246,-0.3153,-0.3146,-0.29,-0.2868,-0.3271,-0.3271,-0.3271,-0.3271,-0.3271,0,-0.241,-0.2469,-0.2609,-0.2654,-0.2738,-0.2851,-0.2935,-0.3018,-0.3131,-0.3197,-0.3267,-0.3308,-0.3327,-0.3338,-0.3303,-0.3245,-0.3305,-0.3177,-0.3156,-0.2916,-0.2887,-0.3187,-0.3177,-0.3272,-0.3272,-0.3272,-0.3271,0,-0.2332,-0.2433,-0.2518,-0.267,-0.2712,-0.276,-0.29,-0.2971,-0.3086,-0.3172,-0.32,-0.3312,-0.3328,-0.3338,-0.334,-0.3281,-0.3253,-0.3216,-0.293,-0.2875,-0.3105,-0.3098,-0.3136,-0.3134,-0.3131,-0.3129,-0.3128,0,-0.2301,-0.2339,-0.2479,-0.2521,-0.258,-0.2674,-0.2747,-0.2906,-0.2975,-0.3155,-0.3183,-0.3261,-0.3267,-0.3257,-0.3173,-0.3116,-0.32,-0.2843,-0.2766,-0.3119,-0.3095,-0.3092,-0.3088,-0.2469,-0.2462,-0.2456,-0.2452,0,-0.2219,-0.2257,-0.2324,-0.2404,-0.2478,-0.2563,-0.2669,-0.2725,-0.2913,-0.2995,-0.3091,-0.312,-0.3121,-0.2937,-0.2875,-0.28,-0.2834,-0.2729,-0.3169,-0.255,-0.2493,-0.2469,-0.2486,-0.2402,-0.2407,-0.241,-0.2413,-0.2415,-0.2116,-0.2123,-0.2196,-0.2261,-0.2349,-0.241,-0.2417,-0.2547,-0.2627,-0.2694,-0.2851,-0.2791,-0.2797,-0.2547,-0.2452,-0.2365,-0.2552,-0.2422,-0.2438,-0.246,-0.238,-0.2323,-0.2184,-0.2188,-0.2191,-0.2194,-0.2196,0,-0.1974,-0.2002,-0.2055,-0.2119,-0.2141,-0.2239,-0.2333,-0.2299,-0.2319,-0.241,-0.2429,-0.2186,-0.2082,-0.2101,-0.1887,-0.1875,-0.1837,-0.1803,-0.1736,-0.1785,-0.1829,-0.1717,-0.1345,-0.1343,-0.1341,-0.134,0,0,-0.1894,-0.1879,-0.1913,-0.1884,-0.1927,-0.1876,-0.1884,-0.1855,-0.1864,-0.1799,-0.1758,-0.1909,-0.1995,-0.1653,-0.1596,-0.1435,-0.1591,-0.1361,-0.2033,-0.1998,-0.2039,-0.2166,-0.2046,0,0,0,0,0]},{"header":{"parameterUnit":"m.s-1","parameterCategory":2,"la1":30.2991,"la2":30.254,"lo1":-89.0895,"lo2":-89.0444,"dy":0.0017,"dx":0.0017,"nx":28,"ny":28,"refTime":"2023-10-11T03:00:00:Z","depth":"2","parameterNumber":3,"parameterNumberName":"V-component_of_CURRENTS"},"data":[0,0,0,0,0,0,0,0,0,0,0,0,0,0,0,0,0,0,0,0,0,0,0,0,0,0,0,0,0,0,0,0,0,0,0,0,0,0,0,0,0,0,0,0,0,0,0,0,0,0,0,0,0,0,0,0,0,0,-0.0075,-0.0073,0,0.0053,0.0054,0.0056,0.0132,0.0133,0.0133,0.0133,0.0279,0.0282,0.0286,0,0,0,0,0,0,0,0,0,0,0,0,0,-0.0216,-0.0214,-0.0075,-0.0073,-0.0072,0.0053,0.0054,0.0056,0.0132,0.0133,0.0133,0.0133,0.0278,0.0282,0.0286,0,0,0,0,0,0,0,0,0,0,0,0,0,-0.0128,-0.0214,-0.0075,-0.0019,-0.0013,0.0052,0.0055,0.0057,0.0132,0.0133,0.0133,0.0134,0.0276,0.0281,0.0287,0.031,0,0,0.0303,0.0305,0,0,0,0,0,0,0,0,-0.0133,-0.0123,-0.0029,-0.0023,-0.0016,0.0077,0.0058,0.0142,0.0132,0.0078,0.0133,0.0134,0.0212,0.0223,0.0246,0.0317,0.0323,0.0304,0.0307,0.0309,0.0311,0,0,0,0,0,0,0,-0.014,-0.0128,-0.0024,-0.0027,-0.0019,0.0012,0.0025,0.0074,0.0141,0.0083,0.0088,0.0102,0.0216,0.0241,0.025,0.0326,0.0303,0.0308,0.0311,0.0314,0.0436,0.0436,0,0,0,0,0,0,-0.0158,-0.0134,-0.0028,-0.002,-0.0075,0.0014,0.0028,0.0047,0.0141,0.0155,0.0101,0.0105,0.0231,0.0244,0.0256,0.0292,0.0309,0.0314,0.0317,0.0436,0.0436,0.0436,0,0,0,0,0,0,-0.0162,-0.015,-0.0033,-0.0075,-0.0058,0.0016,0.0036,0.0049,0.0074,0.0155,0.017,0.0111,0.0232,0.0248,0.03,0.0298,0.0316,0.0321,0.0436,0.0436,0.0436,0.0363,0,0,0,0,0,0,-0.0166,-0.0152,-0.0151,-0.0076,-0.0056,-0.0005,0.0036,0.0051,0.0081,0.0087,0.0168,0.0183,0.0234,0.0292,0.0306,0.0306,0.0326,0.0436,0.0436,0.0436,0.0366,0.0361,0.0357,0,0,0,0,0,-0.0172,-0.0174,-0.0151,-0.0139,-0.0055,-0.0006,0.0007,0.0061,0.0081,0.0085,0.0146,0.018,0.0302,0.0296,0.0312,0.0314,0.0436,0.0436,0.0436,0.0368,0.0362,0.0357,0,0,0,0,0,0,-0.0239,-0.0164,-0.0138,-0.0119,-0.0071,0.0006,0.0014,0.0053,0.0104,0.0109,0.0185,0.0203,0.0246,0.029,0.0282,0.035,0.0373,0.0376,0.0315,0.0311,0.0306,0.0289,0.033,0,0,0,0,0,-0.0254,-0.0235,-0.0161,-0.015,-0.0129,-0.006,-0.0035,0.0003,0.0061,0.0084,0.0143,0.0205,0.0259,0.0291,0.0342,0.0382,0.0429,0.0393,0.0388,0.0384,0.0381,0.0451,0.0452,0.0437,0.0437,0.0437,0,0,-0.0279,-0.0235,-0.0226,-0.0163,-0.0122,-0.0099,-0.0044,-0.0014,0.0009,0.0091,0.0132,0.0189,0.0265,0.031,0.0333,0.0347,0.0413,0.0384,0.038,0.038,0.0451,0.0453,0.0454,0.0437,0.0437,0.0437,0,0,-0.0323,-0.028,-0.028,-0.0244,-0.0187,-0.0139,-0.0135,-0.0061,-0.0026,0.0022,0.0086,0.0143,0.0222,0.0283,0.0323,0.0325,0.0383,0.0336,0.0306,0.0373,0.0375,0.0377,0.0433,0.044,0.0337,0.0337,0.0337,0,-0.0358,-0.0342,-0.0276,-0.0266,-0.0246,-0.0163,-0.0163,-0.0111,-0.003,-0.0001,0.0021,0.0153,0.0212,0.0284,0.0284,0.0315,0.0357,0.0318,0.0366,0.037,0.0373,0.043,0.044,0.0334,0.0334,0.0335,0.0335,0,-0.0395,-0.0385,-0.0385,-0.034,-0.031,-0.0298,-0.0219,-0.0184,-0.0132,-0.0073,0.0001,0.0093,0.0172,0.02,0.0245,0.03,0.0322,0.0348,0.0376,0.037,0.0431,0.0442,0.0329,0.033,0.0331,0.0332,0,0,-0.0466,-0.0421,-0.0423,-0.0425,-0.0351,-0.0335,-0.0292,-0.0229,-0.0204,-0.0114,-0.0071,0.0035,0.0092,0.014,0.0211,0.0274,0.0334,0.0313,0.0318,0.036,0.0475,0.0518,0.0535,0.0366,0.0367,0.0369,0.0504,0,-0.0518,-0.054,-0.0486,-0.0502,-0.0509,-0.042,-0.0391,-0.0321,-0.0246,-0.0182,-0.0064,0.0,0.0069,0.0103,0.018,0.0299,0.0361,0.0294,0.0481,0.0487,0.052,0.0549,0.0495,0.0614,0.0516,0.0518,0.0519,0,-0.0568,-0.0581,-0.0615,-0.0595,-0.0588,-0.0574,-0.0514,-0.0476,-0.0353,-0.0293,-0.0189,-0.0092,0.003,0.0075,0.0284,0.0237,0.0342,0.0434,0.0442,0.0516,0.0552,0.0607,0.0639,0.0538,0.0537,0.0535,0.0534,0,-0.0668,-0.0667,-0.0705,-0.0697,-0.0656,-0.0649,-0.0619,-0.0517,-0.0488,-0.0363,-0.0319,-0.0154,-0.0073,0.009,0.0296,0.0286,0.052,0.0533,0.0674,0.0678,0.0687,0.0689,0.0664,0.0664,0.0664,0.0663,0.0663,0,-0.0745,-0.0773,-0.076,-0.0782,-0.0827,-0.0754,-0.0759,-0.0698,-0.0604,-0.0568,-0.0393,-0.0314,-0.0067,0.0107,0.028,0.0525,0.0516,0.0678,0.0723,0.066,0.0658,0.0635,0.063,0.0668,0.0667,0.0666,0.0665,0,-0.0838,-0.0827,-0.0874,-0.0867,-0.0876,-0.0907,-0.0875,-0.0867,-0.076,-0.0703,-0.0669,-0.0432,-0.0187,0.007,0.035,0.0504,0.0727,0.0806,0.0714,0.0746,0.0838,0.0828,0.0977,0.098,0.0982,0.0984,0.0986,0,-0.0885,-0.0922,-0.0963,-0.101,-0.1011,-0.1041,-0.1057,-0.0969,-0.0941,-0.0766,-0.074,-0.049,-0.028,0.0168,0.048,0.0808,0.0799,0.0923,0.0903,0.0846,0.0874,0.086,0.0846,0.0883,0.0883,0.0884,0.0884,0,-0.0978,-0.0985,-0.103,-0.114,-0.1183,-0.1219,-0.1221,-0.122,-0.1093,-0.1001,-0.0815,-0.0631,-0.0177,0.021,0.063,0.0799,0.0872,0.0946,0.093,0.081,0.0768,0.0792,0.078,0.089,0.0889,0.0889,0.0888,0.0888,-0.1039,-0.1102,-0.1169,-0.1269,-0.1328,-0.1371,-0.1392,-0.134,-0.128,-0.1089,-0.0882,-0.0547,-0.0178,0.0453,0.0727,0.0971,0.0977,0.1025,0.1019,0.1013,0.0975,0.0941,0.1087,0.1087,0.1088,0.1088,0.1089,0,-0.1113,-0.119,-0.1297,-0.1398,-0.1476,-0.1474,-0.1483,-0.1443,-0.136,-0.11,-0.0855,-0.0401,0.0049,0.0419,0.0831,0.1073,0.1025,0.1077,0.0977,0.0971,0.0966,0.0922,0.1022,0.1023,0.1023,0.1024,0,0,-0.1158,-0.1278,-0.1344,-0.1506,-0.157,-0.1636,-0.1637,-0.1526,-0.1335,-0.1056,-0.0767,-0.0365,0.0097,0.0374,0.0666,0.0865,0.0841,0.0857,0.0885,0.0725,0.0717,0.0914,0.0838,0,0,0,0,0]}],[{"header":{"parameterUnit":"m.s-1","parameterCategory":2,"la1":30.2991,"la2":30.254,"lo1":-89.0895,"lo2":-89.0444,"dy":0.0017,"dx":0.0017,"nx":28,"ny":28,"refTime":"2023-10-11T03:00:00:Z","depth":"4","parameterNumber":2,"parameterNumberName":"U-component_of_CURRENTS"},"data":[0,0,0,0,0,0,0,0,0,0,0,0,0,0,0,0,0,0,0,0,0,0,0,0,0,0,0,0,0,0,0,0,0,0,0,0,0,0,0,0,0,0,0,0,0,0,0,0,0,0,0,0,0,0,0,0,0,0,-0.1761,-0.1762,0,-0.1841,-0.1841,-0.1842,-0.1899,-0.1899,-0.19,-0.19,-0.197,-0.1971,-0.1972,0,0,0,0,0,0,0,0,0,0,0,0,0,-0.1649,-0.1651,-0.1761,-0.1762,-0.1763,-0.184,-0.1841,-0.1842,-0.1898,-0.1899,-0.19,-0.1901,-0.197,-0.1971,-0.1972,0,0,0,0,0,0,0,0,0,0,0,0,0,-0.1708,-0.1651,-0.1761,-0.1802,-0.1807,-0.184,-0.1841,-0.1842,-0.1898,-0.1899,-0.19,-0.1901,-0.1969,-0.1971,-0.1973,-0.1965,0,0,-0.1978,-0.1979,0,0,0,0,0,0,0,0,-0.1705,-0.1712,-0.1795,-0.18,-0.1805,-0.1863,-0.1828,-0.1884,-0.1898,-0.1861,-0.19,-0.1902,-0.1934,-0.1939,-0.1948,-0.1968,-0.1971,-0.1979,-0.198,-0.198,-0.1981,0,0,0,0,0,0,0,-0.17,-0.1709,-0.179,-0.1796,-0.1802,-0.1814,-0.1823,-0.1838,-0.1889,-0.1865,-0.1869,-0.1881,-0.1936,-0.1946,-0.195,-0.1972,-0.1978,-0.198,-0.1981,-0.1982,-0.2088,-0.2089,0,0,0,0,0,0,-0.1695,-0.1705,-0.1788,-0.1793,-0.1759,-0.1816,-0.1826,-0.1841,-0.1889,-0.1898,-0.188,-0.1884,-0.1943,-0.1948,-0.1953,-0.2047,-0.198,-0.1982,-0.1983,-0.2086,-0.2088,-0.209,0,0,0,0,0,0,-0.1692,-0.1701,-0.1785,-0.1752,-0.1764,-0.1817,-0.1833,-0.1842,-0.1888,-0.1902,-0.1911,-0.1922,-0.1944,-0.1951,-0.2003,-0.2046,-0.1983,-0.1985,-0.2084,-0.2086,-0.2089,-0.217,0,0,0,0,0,0,-0.1688,-0.17,-0.1722,-0.1752,-0.1766,-0.183,-0.1833,-0.1843,-0.1893,-0.1899,-0.1939,-0.1945,-0.1945,-0.2001,-0.2005,-0.2048,-0.1986,-0.2082,-0.2085,-0.2088,-0.2165,-0.2175,-0.2183,0,0,0,0,0,-0.1684,-0.1709,-0.1723,-0.1734,-0.1791,-0.1831,-0.184,-0.1878,-0.1894,-0.1922,-0.1953,-0.1945,-0.2024,-0.2004,-0.2008,-0.2053,-0.208,-0.2084,-0.2088,-0.2161,-0.2173,-0.2183,0,0,0,0,0,0,-0.1674,-0.1718,-0.1734,-0.1772,-0.1811,-0.1843,-0.1874,-0.1897,-0.1943,-0.1958,-0.1967,-0.1975,-0.2036,-0.2031,-0.2009,-0.2091,-0.205,-0.2055,-0.2104,-0.2116,-0.2125,-0.213,-0.1988,0,0,0,0,0,-0.168,-0.1712,-0.1752,-0.1786,-0.1808,-0.1846,-0.1873,-0.1902,-0.1938,-0.1962,-0.199,-0.2019,-0.2048,-0.2074,-0.2093,-0.2139,-0.213,-0.217,-0.2179,-0.2187,-0.2194,-0.2217,-0.2229,-0.2102,-0.2102,-0.2102,0,0,-0.1685,-0.1715,-0.1734,-0.1787,-0.1819,-0.1865,-0.1866,-0.1919,-0.197,-0.196,-0.2041,-0.2053,-0.2067,-0.2122,-0.2148,-0.213,-0.2219,-0.2192,-0.2198,-0.2202,-0.2222,-0.2234,-0.2245,-0.2105,-0.2104,-0.2104,0,0,-0.1705,-0.174,-0.1773,-0.1812,-0.187,-0.1897,-0.1921,-0.1974,-0.2015,-0.208,-0.2089,-0.213,-0.2177,-0.2199,-0.2212,-0.2282,-0.2263,-0.2291,-0.2349,-0.2371,-0.2382,-0.2391,-0.2398,-0.2407,-0.23,-0.23,-0.23,0,-0.1713,-0.1759,-0.179,-0.1835,-0.1876,-0.1917,-0.1968,-0.2015,-0.2083,-0.2121,-0.212,-0.2203,-0.2213,-0.2281,-0.2307,-0.2305,-0.2307,-0.2307,-0.2383,-0.2392,-0.24,-0.2405,-0.2414,-0.2305,-0.2304,-0.2304,-0.2303,0,-0.1748,-0.1803,-0.1829,-0.19,-0.1948,-0.1999,-0.2063,-0.2123,-0.217,-0.221,-0.2293,-0.2309,-0.2354,-0.2368,-0.2361,-0.2431,-0.2411,-0.2389,-0.2355,-0.2418,-0.2419,-0.2427,-0.2311,-0.2309,-0.2308,-0.2307,0,0,-0.1716,-0.1832,-0.1843,-0.1898,-0.199,-0.2032,-0.2124,-0.221,-0.2278,-0.2338,-0.2416,-0.2465,-0.247,-0.2485,-0.2486,-0.2511,-0.2566,-0.2482,-0.2481,-0.2487,-0.2613,-0.2426,-0.2416,-0.2561,-0.2562,-0.2564,-0.2592,0,-0.1737,-0.1831,-0.1886,-0.199,-0.2045,-0.2121,-0.2203,-0.229,-0.2358,-0.2443,-0.2479,-0.2543,-0.2517,-0.2543,-0.2568,-0.2566,-0.2591,-0.256,-0.2552,-0.2551,-0.2377,-0.242,-0.257,-0.2597,-0.2599,-0.26,-0.2601,0,-0.1742,-0.1813,-0.1911,-0.2048,-0.208,-0.215,-0.2285,-0.2363,-0.2482,-0.2536,-0.2603,-0.2627,-0.2685,-0.2645,-0.2682,-0.2665,-0.265,-0.2641,-0.2642,-0.2443,-0.2378,-0.2521,-0.2615,-0.2614,-0.2613,-0.2612,-0.2611,0,-0.1688,-0.1827,-0.191,-0.1956,-0.2111,-0.2179,-0.2262,-0.2389,-0.2458,-0.2591,-0.2641,-0.2715,-0.2743,-0.2753,-0.2725,-0.2716,-0.2746,-0.2726,-0.2549,-0.2536,-0.2661,-0.265,-0.2755,-0.2755,-0.2755,-0.2755,-0.2754,0,-0.1669,-0.1742,-0.1899,-0.1946,-0.2049,-0.2168,-0.2278,-0.2374,-0.2503,-0.2571,-0.2674,-0.2711,-0.2771,-0.2785,-0.2762,-0.2662,-0.2771,-0.2561,-0.253,-0.2694,-0.2687,-0.2666,-0.2655,-0.2756,-0.2755,-0.2755,-0.2755,0,-0.1588,-0.1696,-0.1798,-0.197,-0.2024,-0.2094,-0.2259,-0.2335,-0.2472,-0.256,-0.26,-0.2716,-0.2724,-0.2755,-0.2766,-0.2674,-0.2625,-0.2566,-0.2741,-0.2719,-0.2398,-0.2392,-0.2377,-0.2371,-0.2365,-0.2361,-0.2357,0,-0.1552,-0.1598,-0.1776,-0.1831,-0.1911,-0.2034,-0.2114,-0.2287,-0.2349,-0.2526,-0.2541,-0.2621,-0.2667,-0.2531,-0.2588,-0.2536,-0.25,-0.2469,-0.2431,-0.2387,-0.236,-0.2362,-0.2363,-0.2348,-0.2347,-0.2346,-0.2344,0,-0.1471,-0.1542,-0.162,-0.1724,-0.1822,-0.1913,-0.2032,-0.2063,-0.2248,-0.24,-0.2405,-0.2408,-0.2415,-0.2402,-0.2374,-0.2339,-0.2487,-0.2412,-0.2423,-0.2388,-0.2353,-0.2331,-0.2339,-0.2325,-0.2328,-0.233,-0.2331,0,-0.1393,-0.1414,-0.1512,-0.1589,-0.1701,-0.1746,-0.1839,-0.1908,-0.1988,-0.2189,-0.218,-0.2273,-0.2383,-0.2299,-0.2276,-0.2221,-0.2186,-0.2114,-0.214,-0.2161,-0.2073,-0.1996,-0.1833,0,0,0,0,0,-0.1303,-0.1307,-0.1369,-0.1443,-0.1548,-0.1599,-0.1761,-0.186,-0.2043,-0.1986,-0.2074,-0.2071,-0.2045,-0.2094,-0.1988,-0.2175,-0.2193,-0.2043,-0.2124,-0.2222,-0.2243,-0.2158,0,0,0,0,0,0,-0.1239,-0.1284,-0.1309,-0.1296,-0.1312,-0.1401,-0.1493,-0.1626,-0.1602,-0.1792,-0.178,-0.1921,-0.1917,-0.2049,-0.193,-0.1944,-0.1949,-0.211,-0.2104,-0.221,-0.2229,-0.2246,-0.2166,0,0,0,0,0]},{"header":{"parameterUnit":"m.s-1","parameterCategory":2,"la1":30.2991,"la2":30.254,"lo1":-89.0895,"lo2":-89.0444,"dy":0.0017,"dx":0.0017,"nx":28,"ny":28,"refTime":"2023-10-11T03:00:00:Z","depth":"4","parameterNumber":3,"parameterNumberName":"V-component_of_CURRENTS"},"data":[0,0,0,0,0,0,0,0,0,0,0,0,0,0,0,0,0,0,0,0,0,0,0,0,0,0,0,0,0,0,0,0,0,0,0,0,0,0,0,0,0,0,0,0,0,0,0,0,0,0,0,0,0,0,0,0,0,0,-0.0015,-0.0014,0,0.0077,0.0079,0.008,0.0142,0.0142,0.0142,0.0143,0.0268,0.0271,0.0274,0,0,0,0,0,0,0,0,0,0,0,0,0,-0.0107,-0.0106,-0.0015,-0.0014,-0.0013,0.0077,0.0079,0.008,0.0142,0.0142,0.0143,0.0143,0.0267,0.0271,0.0274,0,0,0,0,0,0,0,0,0,0,0,0,0,-0.0045,-0.0105,-0.0015,0.0028,0.0033,0.0077,0.0079,0.008,0.0142,0.0142,0.0143,0.0143,0.0266,0.027,0.0275,0.0292,0,0,0.0289,0.0291,0,0,0,0,0,0,0,0,-0.0049,-0.0042,0.0021,0.0025,0.003,0.0098,0.0092,0.0153,0.0141,0.0101,0.0143,0.0143,0.0213,0.0222,0.0239,0.0298,0.0304,0.0289,0.0292,0.0294,0.0295,0,0,0,0,0,0,0,-0.0053,-0.0045,0.0023,0.0022,0.0028,0.0053,0.0062,0.0104,0.0155,0.0105,0.0109,0.0118,0.0216,0.0235,0.0243,0.0306,0.0289,0.0293,0.0296,0.0297,0.0403,0.0403,0,0,0,0,0,0,-0.0069,-0.0049,0.002,0.0025,-0.001,0.0054,0.0065,0.0076,0.0154,0.0165,0.0117,0.012,0.0227,0.0237,0.0247,0.028,0.0294,0.0298,0.03,0.0403,0.0403,0.0403,0,0,0,0,0,0,-0.0071,-0.0063,0.0016,-0.0011,0.0001,0.0055,0.0068,0.0078,0.0098,0.0162,0.0175,0.0127,0.0227,0.0241,0.0286,0.0285,0.03,0.0304,0.0403,0.0403,0.0403,0.0341,0,0,0,0,0,0,-0.0074,-0.0065,-0.0066,-0.0012,0.0002,0.0034,0.0068,0.0079,0.0102,0.0107,0.0175,0.0187,0.0229,0.0279,0.0291,0.0292,0.0308,0.0403,0.0403,0.0403,0.0343,0.0339,0.0336,0,0,0,0,0,-0.0078,-0.0082,-0.0066,-0.0058,-0.0,0.0034,0.0043,0.0084,0.0101,0.0105,0.0156,0.0185,0.0288,0.0283,0.0297,0.0299,0.0403,0.0403,0.0403,0.0345,0.034,0.0336,0,0,0,0,0,0,-0.0124,-0.0074,-0.0056,-0.0046,-0.0013,0.0044,0.0049,0.0079,0.0121,0.0126,0.0189,0.0205,0.0242,0.0279,0.0272,0.033,0.0349,0.0352,0.0301,0.0297,0.0293,0.0277,0.0311,0,0,0,0,0,-0.0136,-0.0126,-0.0075,-0.007,-0.0056,-0.0005,0.0013,0.0041,0.0087,0.0106,0.0155,0.0207,0.0253,0.0281,0.0323,0.0357,0.0395,0.0367,0.0364,0.036,0.0357,0.0416,0.0417,0.0404,0.0404,0.0404,0,0,-0.0155,-0.0126,-0.0121,-0.008,-0.0051,-0.0036,0.0007,0.0028,0.0044,0.0113,0.0146,0.0194,0.0258,0.0296,0.0316,0.0328,0.0383,0.036,0.0357,0.0356,0.0416,0.0418,0.0419,0.0404,0.0404,0.0404,0,0,-0.0189,-0.0161,-0.0164,-0.014,-0.0102,-0.0066,-0.0063,-0.0009,0.0018,0.0056,0.0109,0.0159,0.0225,0.0274,0.0308,0.031,0.0358,0.0321,0.0295,0.0353,0.0354,0.0356,0.0397,0.0403,0.0323,0.0323,0.0323,0,-0.0215,-0.0208,-0.0162,-0.0159,-0.0147,-0.0084,-0.0088,-0.0049,0.0014,0.0035,0.0055,0.0164,0.0216,0.0274,0.0275,0.0302,0.0336,0.0305,0.0347,0.035,0.0353,0.0395,0.0402,0.032,0.032,0.032,0.0321,0,-0.0245,-0.0243,-0.0245,-0.0218,-0.0198,-0.0192,-0.0135,-0.011,-0.0069,-0.0024,0.0035,0.0114,0.0178,0.0204,0.0243,0.029,0.0306,0.0331,0.0354,0.035,0.0395,0.0404,0.0315,0.0317,0.0317,0.0318,0,0,-0.0296,-0.0273,-0.0276,-0.0283,-0.0231,-0.0224,-0.0194,-0.015,-0.0134,-0.0061,-0.0031,0.0061,0.0108,0.0148,0.021,0.0265,0.0315,0.03,0.0305,0.0334,0.043,0.0401,0.0409,0.0346,0.0348,0.0349,0.045,0,-0.0337,-0.0362,-0.0326,-0.0347,-0.0357,-0.0295,-0.0277,-0.0228,-0.0171,-0.0124,-0.0027,0.0024,0.0087,0.0115,0.0183,0.0284,0.0336,0.0284,0.0437,0.0441,0.041,0.0417,0.0353,0.0457,0.0459,0.046,0.0461,0,-0.0374,-0.039,-0.0425,-0.0424,-0.0422,-0.0419,-0.0384,-0.0359,-0.0268,-0.0222,-0.0139,-0.0059,0.0043,0.0087,0.0263,0.0226,0.0316,0.0396,0.0402,0.0402,0.0429,0.0466,0.0478,0.0477,0.0476,0.0474,0.0473,0,-0.0443,-0.0457,-0.0495,-0.0494,-0.0476,-0.048,-0.0466,-0.0396,-0.0379,-0.0284,-0.0253,-0.0116,-0.0049,0.0091,0.0265,0.0262,0.0452,0.0471,0.0531,0.053,0.0553,0.0551,0.0582,0.0582,0.0582,0.0581,0.0581,0,-0.0494,-0.0526,-0.0538,-0.0559,-0.0609,-0.0564,-0.0584,-0.0541,-0.0479,-0.0455,-0.0316,-0.0256,-0.0045,0.0097,0.0246,0.0417,0.0443,0.0525,0.0556,0.0524,0.0517,0.0559,0.0555,0.0585,0.0584,0.0584,0.0583,0,-0.0551,-0.0558,-0.0609,-0.0627,-0.0644,-0.0678,-0.0681,-0.0682,-0.0609,-0.057,-0.0544,-0.0359,-0.0167,0.0044,0.028,0.0382,0.0552,0.0603,0.0545,0.0571,0.0594,0.0586,0.0671,0.0671,0.0671,0.0671,0.0671,0,-0.0579,-0.0613,-0.0677,-0.0727,-0.074,-0.0786,-0.0811,-0.0761,-0.0746,-0.0625,-0.0603,-0.0417,-0.0274,0.0048,0.0258,0.0532,0.0567,0.0638,0.0622,0.0583,0.0605,0.0597,0.0589,0.0671,0.0671,0.0671,0.0671,0,-0.0633,-0.0656,-0.0701,-0.081,-0.0865,-0.0916,-0.0939,-0.0935,-0.0853,-0.0797,-0.0633,-0.0443,-0.0228,0.0036,0.0249,0.0445,0.0583,0.0637,0.0639,0.0625,0.0583,0.0603,0.0596,0.067,0.067,0.067,0.067,0,-0.0669,-0.0721,-0.079,-0.0879,-0.0962,-0.1008,-0.1012,-0.0964,-0.0931,-0.0773,-0.0725,-0.0461,-0.0301,-0.0009,0.019,0.0378,0.0418,0.0458,0.047,0.0473,0.0384,0.0299,0.0325,0,0,0,0,0,-0.0696,-0.0762,-0.0857,-0.0942,-0.102,-0.1063,-0.1077,-0.1052,-0.0972,-0.0869,-0.0787,-0.0574,-0.0245,-0.0089,0.0093,0.0161,0.0425,0.0375,0.047,0.0668,0.0668,0.0595,0,0,0,0,0,0,-0.072,-0.0809,-0.0861,-0.0972,-0.1038,-0.1108,-0.1118,-0.1065,-0.0981,-0.0876,-0.0689,-0.0565,-0.0238,-0.0351,0.0086,0.0145,0.0221,0.0543,0.0545,0.0668,0.0668,0.0668,0.0593,0,0,0,0,0]}]]